Hourly Data Report for October 06, 2017

All times are specified in Local Standard Time (LST). Add 1 hour to adjust for Daylight Saving Time where and when it is observed.

YARMOUTH A
NOVA SCOTIA

43°49'37.000" N
66°05'17.000" W
42.90 m
8206495
71603
YQI

Download Data

Hourly Data (October 2017)
Hourly Data Report for October 6, 2017
Temp Definition
°C
Dew Point Temp Definition
°C
Rel Hum Definition
%
Wind Dir Definition
10's deg

Wind Spd Definition
km/h
Visibility Definition
km
Stn Press Definition
kPa
Hmdx Definition


Wind Chill Definition


Weather Definition


TIME
00:00 Legend Double Dagger 13.8 13.3 97 19 9 14.5 100.99     Drizzle
01:00 Legend Double Dagger 14.5 14.3 99 23 11 0.4 101.00     Fog
02:00 Legend Double Dagger 14.5 14.3 99 27 13 0.4 101.02     Fog
03:00 Legend Double Dagger 13.8 13.6 99 32 9 0.4 101.02     Fog
04:00 Legend Double Dagger 13.0 12.9 99 0 1 0.4 101.02     Fog
05:00 Legend Double Dagger 11.6 11.4 99 28 4 1.6 101.12     Fog
06:00 Legend Double Dagger 11.0 10.8 99 24 4 4.8 101.18     Fog
07:00 Legend Double Dagger 11.6 11.5 99 26 8 9.7 101.20     Fog
08:00 Legend Double Dagger 14.2 13.9 98 27 10 14.5 101.26     Mostly Cloudy
09:00 Legend Double Dagger 15.6 12.8 83 28 11 24.1 101.28     LegendNANA
10:00 Legend Double Dagger 17.0 12.5 75 29 12 24.1 101.27     LegendNANA
11:00 Legend Double Dagger 17.5 11.1 66 27 14 24.1 101.28     Mostly Cloudy
12:00 Legend Double Dagger 17.7 11.6 67 29 10 24.1 101.32     LegendNANA
13:00 Legend Double Dagger 15.8 12.0 78 29 13 19.3 101.33     Rain Showers
14:00 Legend Double Dagger 14.5 11.6 83 30 13 11.3 101.29     Rain Showers
15:00 Legend Double Dagger 15.0 11.5 80 30 11 24.1 101.28     LegendNANA
16:00 Legend Double Dagger 14.8 11.4 80 33 8 24.1 101.28     LegendNANA
17:00 Legend Double Dagger 15.1 10.7 75 36 2 24.1 101.24     Mostly Cloudy
18:00 Legend Double Dagger 14.1 11.2 82 17 4 24.1 101.23     LegendNANA
19:00 Legend Double Dagger 13.2 11.1 87 19 5 24.1 101.30     LegendNANA
20:00 Legend Double Dagger 11.8 10.7 93 21 7 24.1 101.36     Clear
21:00 Legend Double Dagger 11.5 11.0 96 21 9 24.1 101.41     LegendNANA
22:00 Legend Double Dagger 11.5 11.1 98 21 9 24.1 101.46     LegendNANA
23:00 Legend Double Dagger 11.3 10.4 94 23 12 24.1 101.52     Clear

Notes on Data Quality.

Legend

  • E = Estimated
  • M = Missing
  • NA = Not Available
  • ‡ = Partner data that is not subject to review by the National Climate Archives
Date modified: